Погода в Хуне

Ливия     29˚05′50″N   15˚56′07″E
темп.,
°C
ветер,
м/с
пор.,
м/с
влажн.,
%
обл.,
%
осадки,
мм/ч
давл.,
гПа
погр.,
м
17 января, вс
вс1723:00+10˚ссз12470 0.0 102022
02:00+10˚сз34470 0.0 102023
05:00+7˚ссз23640 0.0 102123
08:00+6˚зсз23720 0.0 102322
11:00+12˚сз67490 0.0 1025988
14:00+15˚сз67370 0.0 10231493
17:00+15˚сз57310 0.0 10221713
20:00+12˚сз34540 0.0 102332
18 января, пн
пн1823:00+10˚зсз34600 0.0 102623
02:00+9˚зсз34670 0.0 102533
05:00+8˚зсз44740 0.0 102547
08:00+6˚з34780 0.0 102632
11:00+12˚зсз56438 0.0 1026698
14:00+15˚зсз55344 0.0 1024984
17:00+16˚зсз563032 0.0 10231148
20:00+13˚зсз343620 0.0 102423
19 января, вт
вт1923:00+12˚зсз45370 0.0 102645
02:00+9˚ссз34580 0.0 102725
05:00+7˚сз34750 0.0 102724
08:00+6˚сз34830 0.0 102828
11:00+11˚ссз46620 0.0 1029602
14:00+14˚с45490 0.0 10271243
17:00+15˚ссв454530 0.0 10271538
20:00+14˚всв575463 0.0 1029662
20 января, ср
ср2023:00+12˚всв4755100 0.0 1031489
02:00+9˚вюв356770 0.0 103198
05:00+7˚вюв347043 0.0 103166
08:00+6˚юв337821 0.0 103226
11:00+12˚вюв55500 0.0 1032762
14:00+15˚вюв44320 0.0 10291263
17:00+16˚вюв44280 0.0 10271459
20:00+11˚в58450 0.0 1029118
21 января, чт
чт2123:00+10˚юв57540 0.0 1029107
02:00+8˚юв57550 0.0 1028135
05:00+7˚юв44560 0.0 102844
08:00+6˚ююв23590 0.0 102923
11:00+12˚ююв34340 0.0 1028577
14:00+16˚ююв22250 0.0 10261270
17:00+17˚в222259 0.0 10241243
20:00+13˚вюв552761 0.0 102570